Location: Sternwarte-Kirchheim
(50.8752°N, 11.0153°E)
Time: 11:46:39
(UTC+01:00)

ISS - Pass Details

Date: 26 February 2019
Orbit: 406 x 411 km, 51.6° (Epoch: 21 March)

Event Time Altitude Azimuth Distance (km) Brightness Sun altitude
Exits shadow 05:34:47 - 196° (SSW) 1,599 -1.0 -15.4°
Reaches altitude 10° 05:35:13 10° 191° (SSW) 1,460 -1.2 -15.3°
Maximum altitude 05:37:40 20° 143° (SE) 1,020 -1.4 -14.9°
Drops below altitude 10° 05:40:07 10° 95° (E) 1,468 0.4 -14.5°
Sets 05:42:34 0° 77° (ENE) 2,333 1.8 -14.1°
